Powrót do katalogu

COSMOS 1375 DEB

AktywnyLEO
NORAD 19453·DEBRIS·🇷🇺 Russia

Wystrzelony Jun 6, 1982 z Plesetsk Cosmodrome

Loading…

Następne Przeloty (najbliższe 24 godziny)

TLE

ŚwieżeSource: Space-Track

Epoka: Sep 13, 2026, 11:30 UTC

1 19453U 82055BL  26256.47932484  .00002045  00000-0  60437-3 0  9998
2 19453  65.7978  68.5478 0037589  24.5440   6.2908 14.45245864985061

Śledź COSMOS 1375 DEB w czasie rzeczywistym z AllMySat

Download on the App Store